Flag for Germany Weather past 2 weeks in Apolda, Thuringia, Germany

Now
54 °F

Sprinkles. Overcast.


Feels Like: 53 °F
Forecast: 47 / 65 °F
Wind: 5 mph from Southwest

Location: Erfurt-Bindersleben

Current Time: May 28, 2015 at 9:17:08 PM

Latest Report: May 28, 2015 at 9:00 PM


Visibility: 25 mi

Pressure: 29.92 "Hg

Humidity: 87%

Dew point: 51 °F

Location of ApoldaLocation

Historic Weather in Apolda — Graph

°F

Apolda temperature yesterday

Maximum temperature yesterday: 53 °F (at 4:00 PM)
Minimum temperature yesterday: 45 °F (at 6:00 AM)
Average temperature yesterday: 49 °F

Past Weeks' High & Low Weather Summary

 TemperatureHumidityPressure
High69 °F (May 18, 5:00 PM)94% (May 16, 7:00 AM)30.38 "Hg (May 16, 7:00 AM)
Low35 °F (May 22, 5:00 AM)30% (May 19, 3:00 PM)29.65 "Hg (May 19, 5:00 AM)
Average53 °F65%30.05 "Hg
* Reported May 13 8:00 PM — May 28 8:00 PM, Apolda, Weather by CustomWeather, © 2015

Note: Actual official high and low records may vary slightly from our data, if they occured in-between our weather recording intervals... More about our weather records

Advertising

Apolda weather history for previous 24 hours

 ConditionsComfort  
Time TempWeatherWind HumidityBarometerVisibility
8:00 PM
Thu, May 28
60 °FOvercast.6 mph57%29.90 "Hg31 mi
7:00 PM62 °FOvercast.6 mph51%29.90 "Hg31 mi
6:00 PM62 °FOvercast.7 mph50%29.90 "Hg31 mi
5:00 PM64 °FOvercast.8 mph44%29.90 "Hg31 mi
4:00 PM66 °FPartly sunny.9 mph40%29.90 "Hg31 mi
3:00 PM66 °FPartly sunny.8 mph46%29.92 "Hg37 mi
2:00 PM63 °FPartly sunny.8 mph49%29.95 "Hg37 mi
1:00 PM62 °FPartly sunny.7 mph53%29.96 "Hg37 mi
12:00 PM58 °FPartly sunny.9 mph53%30.00 "Hg37 mi
11:00 AM60 °FPartly sunny.9 mph51%30.01 "Hg37 mi
10:00 AM57 °FOvercast.7 mph53%30.03 "Hg37 mi
9:00 AM52 °FOvercast.6 mph63%30.04 "Hg43 mi
8:00 AM49 °FOvercast.5 mph69%30.07 "Hg37 mi
7:00 AM44 °FOvercast.5 mph74%30.08 "Hg37 mi
6:00 AM42 °FOvercast.5 mph76%30.09 "Hg37 mi
5:00 AM40 °FPassing clouds.5 mph82%30.10 "Hg37 mi
4:00 AM41 °FPassing clouds.5 mph84%30.12 "Hg37 mi
3:00 AM40 °FPassing clouds.3 mph86%30.14 "Hg37 mi
2:00 AM39 °FPassing clouds.3 mph88%30.16 "Hg37 mi
1:00 AM41 °FPassing clouds.3 mph83%30.16 "Hg37 mi
12:00 AM44 °FPassing clouds.5 mph77%30.17 "Hg37 mi
11:00 PM
Wed, May 27
45 °FPassing clouds.3 mph76%30.18 "Hg47 mi
10:00 PM47 °FPassing clouds.3 mph75%30.18 "Hg47 mi
9:00 PM50 °FOvercast.2 mph71%30.18 "Hg47 mi
Weather by CustomWeather, © 2015

See weather overviewHow to use our weather pages